This demonstration page uses our WeatherBlox Daily Observations layout. Learn more.

Left ArrowRight Arrow

Hourly Observations for September 1, 2016

Temp ( °F °C ) Dew Point ( °F °C ) Humidity (%) Winds ( mph kmh ) Pressure ( in mb ) Visibility ( mi km ) Precip ( " mm )
12:15 am 00:15 Cloudy 79 26 70 21 74 74 NE 7 11 29.91 1013 10 16 N/A
12:35 am 00:35 Cloudy 77 25 68 20 74 74 ENE 3 6 29.91 1013 10 16 N/A
12:55 am 00:55 Mostly Cloudy 77 25 68 20 74 74 NE 5 7 29.88 1012 10 16 N/A
1:15 am 01:15 Mostly Cloudy 77 25 68 20 74 74 NE 3 6 29.88 1012 10 16 N/A
1:35 am 01:35 Cloudy 75 24 68 20 78 78 ENE 3 6 29.88 1012 10 16 N/A
1:55 am 01:55 Cloudy 73 23 70 21 89 89 NE 3 6 29.88 1012 10 16 N/A
2:15 am 02:15 Partly Cloudy 75 24 70 21 83 83 NNE 6 9 29.88 1012 10 16 N/A
2:35 am 02:35 Clear 73 23 70 21 89 89 NNE 7 11 29.88 1012 10 16 N/A
2:55 am 02:55 Partly Cloudy 73 23 70 21 89 89 NNE 7 11 29.88 1012 10 16 N/A
3:15 am 03:15 Cloudy 73 23 70 21 89 89 NNE 6 9 29.88 1012 10 16 N/A
3:35 am 03:35 Cloudy 73 23 70 21 89 89 NNE 5 7 29.88 1012 10 16 N/A
3:55 am 03:55 Cloudy 73 23 70 21 89 89 NNE 6 9 29.88 1012 10 16 N/A
4:15 am 04:15 Partly Cloudy 73 23 70 21 89 89 NE 3 6 29.88 1012 10 16 N/A
4:35 am 04:35 Partly Cloudy 73 23 72 22 94 94 NNE 7 11 29.88 1012 10 16 N/A
4:55 am 04:55 Mostly Cloudy with Light Rain 73 23 72 22 94 94 NNE 3 6 29.88 1012 10 16 N/A
5:15 am 05:15 Cloudy 73 23 72 22 94 94 N 6 9 29.88 1012 10 16 N/A
5:35 am 05:35 Mostly Cloudy 72 22 72 22 100 100 NNE 5 7 29.88 1012 10 16 N/A
5:55 am 05:55 Cloudy 73 23 72 22 94 94 NE 5 7 29.88 1012 10 16 N/A
6:15 am 06:15 Cloudy with Light Rain 73 23 72 22 94 94 N 5 7 29.88 1012 10 16 N/A
6:35 am 06:35 Cloudy with Rain 72 22 70 21 94 94 NNW 8 13 29.88 1012 10 16 N/A
6:55 am 06:55 Cloudy with Light Rain 72 22 70 21 94 94 NNW 7 11 29.91 1013 10 16 N/A
7:15 am 07:15 Mostly Cloudy with Light Rain 72 22 70 21 94 94 NNW 5 7 29.91 1013 10 16 N/A
7:35 am 07:35 Cloudy 72 22 70 21 94 94 NW 5 7 29.91 1013 10 16 N/A
7:55 am 07:55 Cloudy with Rain 70 21 70 21 100 100 N 9 15 29.91 1013 7 11 N/A
8:15 am 08:15 Cloudy with Light Rain 70 21 70 21 100 100 NNW 9 15 29.91 1013 10 16 N/A
8:35 am 08:35 Cloudy with Rain 70 21 70 21 100 100 NNW 7 11 29.91 1013 10 16 N/A
8:55 am 08:55 Cloudy with Rain 70 21 70 21 100 100 WNW 6 9 29.91 1013 5 8 N/A
9:15 am 09:15 Cloudy with Rain 70 21 70 21 100 100 NW 5 7 29.91 1013 10 16 N/A
9:35 am 09:35 Mostly Cloudy with Light Rain 70 21 70 21 100 100 N N/A 29.91 1013 10 16 N/A
9:55 am 09:55 Mostly Cloudy 72 22 72 22 100 100 NW 5 7 29.91 1013 10 16 N/A
10:15 am 10:15 Partly Cloudy 73 23 72 22 94 94 NW 8 13 29.91 1013 10 16 N/A
10:35 am 10:35 Sunny 73 23 72 22 94 94 WNW 7 11 29.91 1013 10 16 N/A
10:55 am 10:55 Sunny 73 23 72 22 94 94 NW 6 9 29.91 1013 10 16 N/A
11:15 am 11:15 Mostly Cloudy with Light Rain 73 23 72 22 94 94 NW 8 13 29.91 1013 10 16 N/A
11:35 am 11:35 Cloudy with Light Rain 73 23 72 22 94 94 WNW 8 13 29.91 1013 10 16 N/A
11:55 am 11:55 Cloudy with Rain 73 23 72 22 94 94 NW 8 13 29.91 1013 10 16 N/A
12:15 pm 12:15 Mostly Cloudy with Light Rain 73 23 72 22 94 94 W 5 7 29.91 1013 10 16 N/A
12:35 pm 12:35 Sunny 73 23 72 22 94 94 WNW 3 6 29.91 1013 10 16 N/A
12:55 pm 12:55 Mostly Cloudy 75 24 72 22 89 89 WNW 9 15 29.91 1013 10 16 N/A
1:15 pm 13:15 Cloudy 77 25 72 22 83 83 NW 7 11 29.91 1013 10 16 N/A
1:35 pm 13:35 Cloudy 77 25 72 22 83 83 WNW 10 17 29.91 1013 10 16 N/A
1:55 pm 13:55 Cloudy 77 25 72 22 83 83 NNW 9 15 29.91 1013 10 16 N/A
2:15 pm 14:15 Mostly Cloudy 79 26 72 22 79 79 NW 12 19 29.91 1013 10 16 N/A
2:35 pm 14:35 Partly Cloudy 79 26 72 22 79 79 NNW 10 17 29.91 1013 10 16 N/A
2:55 pm 14:55 Partly Cloudy 81 27 72 22 74 74 NNE 8 13 29.88 1012 10 16 N/A
3:15 pm 15:15 Sunny 79 26 70 21 74 74 N 7 11 29.88 1012 10 16 N/A
3:35 pm 15:35 Partly Cloudy 82 28 72 22 70 70 N 5 7 29.88 1012 10 16 N/A
3:55 pm 15:55 Partly Cloudy 82 28 72 22 70 70 NE 7 11 29.88 1012 10 16 N/A
4:15 pm 16:15 Partly Cloudy 81 27 70 21 70 70 N N/A 29.88 1012 10 16 N/A
4:35 pm 16:35 Partly Cloudy 82 28 72 22 70 70 NE 6 9 29.88 1012 10 16 N/A
4:55 pm 16:55 Cloudy 81 27 72 22 74 74 NE 3 6 29.88 1012 10 16 N/A
5:15 pm 17:15 Mostly Cloudy with Light Rain 77 25 73 23 89 89 N N/A 29.88 1012 10 16 N/A
5:35 pm 17:35 Mostly Cloudy with Heavy Rain 75 24 73 23 94 94 NNE 8 13 29.91 1013 4 6 N/A
5:55 pm 17:55 Mostly Cloudy 75 24 73 23 94 94 SSW 6 9 29.91 1013 10 16 N/A
6:15 pm 18:15 Mostly Cloudy 75 24 73 23 94 94 SW 3 6 29.91 1013 10 16 N/A
6:35 pm 18:35 Partly Cloudy 75 24 72 22 89 89 N N/A 29.91 1013 10 16 N/A
6:55 pm 18:55 Sunny 75 24 72 22 89 89 WNW 8 13 29.94 1014 10 16 N/A
7:15 pm 19:15 Mostly Cloudy 75 24 72 22 89 89 SSW 6 9 29.94 1014 10 16 N/A
7:35 pm 19:35 Partly Cloudy 75 24 72 22 89 89 S 6 9 29.94 1014 10 16 N/A
7:55 pm 19:55 Clear 86 30 72 22 62 62 S 3 6 29.85 1011 10 16 N/A
8:15 pm 20:15 Mostly Cloudy 72 22 72 22 100 100 S 5 7 29.94 1014 10 16 N/A
8:35 pm 20:35 Partly Cloudy 72 22 72 22 100 100 N N/A 29.97 1015 7 11 N/A
8:55 pm 20:55 Mostly Cloudy 72 22 72 22 100 100 N N/A 29.97 1015 7 11 N/A
9:15 pm 21:15 Cloudy 72 22 72 22 100 100 WNW 5 7 29.97 1015 10 16 N/A
9:35 pm 21:35 Cloudy 73 23 72 22 94 94 W 7 11 29.97 1015 10 16 N/A
9:55 pm 21:55 Partly Cloudy 72 22 72 22 100 100 N N/A 30.00 1016 10 16 N/A
10:15 pm 22:15 Partly Cloudy 72 22 72 22 100 100 NNE 3 6 30.00 1016 7 11 N/A
10:35 pm 22:35 Mostly Cloudy 72 22 72 22 100 100 NE 6 9 30.00 1016 7 11 N/A
10:55 pm 22:55 Cloudy 72 22 72 22 100 100 ENE 3 6 30.00 1016 10 16 N/A
11:15 pm 23:15 Mostly Cloudy 72 22 72 22 100 100 NW 5 7 30.00 1016 10 16 N/A
11:35 pm 23:35 Mostly Cloudy 70 21 70 21 100 100 N N/A 30.03 1017 10 16 N/A
11:55 pm 23:55 Mostly Cloudy 70 21 70 21 100 100 NW 5 7 30.03 1017 10 16 N/A

Powered by AerisWeather